When you browse on this site, cookies collect data to enhance your experience and personalize the content and advertising you see.
Visit our Privacy Policy to learn more. By continuing to use the site, you agree to this use of cookies and data.
  • In Hungary
  • List of Countries
  • For 7 days
  • Water Temperature
  • Weather Map
  • News
  • Weather Widgets
  • user-avatar
    Login

    Hourly Weather Shirokusha

    Today, 21 January, Tuesday

    Time Temperature Precipitation Wind Pressure Humidity
    00:00 -3°C° 0.2 mm 6 mps 746 mmHg 88%
    01:00 -3°C° 0.2 mm 6 mps 745 mmHg 92%
    02:00 -3°C° 0.2 mm 6 mps 744 mmHg 96%
    03:00 -3°C° 0.3 mm 6 mps 743 mmHg 96%
    04:00 -3°C° 0.3 mm 6 mps 742 mmHg 97%
    05:00 -3°C° 0.3 mm 6 mps 740 mmHg 97%
    06:00 -2°C° 0.4 mm 6 mps 740 mmHg 96%
    07:00 -1°C° 0.4 mm 6 mps 739 mmHg 94%
    08:00 0°C° 0.4 mm 7 mps 738 mmHg 92%
    09:00 0°C° 0.1 mm 7 mps 737 mmHg 91%
    10:00 +2°C° 0.1 mm 7 mps 737 mmHg 91%
    11:00 +2°C° 0.1 mm 7 mps 736 mmHg 90%
    12:00 +2°C° 0.1 mm 7 mps 736 mmHg 88%
    13:00 +2°C° 0.1 mm 7 mps 735 mmHg 87%
    14:00 +2°C° 0.1 mm 7 mps 735 mmHg 85%
    15:00 +2°C° 0.1 mm 6 mps 734 mmHg 87%
    16:00 +2°C° 0.1 mm 6 mps 734 mmHg 88%
    17:00 +2°C° 0.1 mm 6 mps 733 mmHg 90%
    18:00 +1°C° 0.4 mm 6 mps 733 mmHg 90%
    19:00 -1°C° 0.4 mm 6 mps 732 mmHg 90%
    20:00 -1°C° 0.4 mm 6 mps 732 mmHg 89%
    21:00 -2°C° 0 mm 7 mps 732 mmHg 85%
    22:00 -2°C° 0 mm 7 mps 732 mmHg 80%
    23:00 -4°C° 0 mm 8 mps 733 mmHg 75%

    Tomorrow, 22 January, Wednesday

    Time Temperature Precipitation Wind Pressure Humidity
    00:00 -3°C° 0 mm 7 mps 733 mmHg 76%
    01:00 -4°C° 0 mm 7 mps 733 mmHg 77%
    02:00 -4°C° 0 mm 7 mps 733 mmHg 78%
    03:00 -4°C° 0 mm 7 mps 732 mmHg 78%
    04:00 -4°C° 0 mm 7 mps 731 mmHg 79%
    05:00 -4°C° 0 mm 7 mps 731 mmHg 80%
    06:00 -4°C° 0.1 mm 7 mps 730 mmHg 79%
    07:00 -4°C° 0.1 mm 7 mps 730 mmHg 78%
    08:00 -4°C° 0.1 mm 7 mps 730 mmHg 78%
    09:00 -4°C° 0 mm 7 mps 730 mmHg 75%
    10:00 -4°C° 0 mm 7 mps 730 mmHg 73%
    11:00 -4°C° 0 mm 7 mps 730 mmHg 70%
    12:00 -4°C° 0 mm 7 mps 730 mmHg 70%
    13:00 -4°C° 0 mm 7 mps 730 mmHg 70%
    14:00 -4°C° 0 mm 6 mps 730 mmHg 69%
    15:00 -4°C° 0 mm 7 mps 730 mmHg 72%
    16:00 -6°C° 0 mm 7 mps 730 mmHg 74%
    17:00 -6°C° 0 mm 7 mps 730 mmHg 77%
    18:00 -6°C° 0.1 mm 7 mps 731 mmHg 77%
    19:00 -6°C° 0.1 mm 7 mps 731 mmHg 77%
    20:00 -7°C° 0.1 mm 7 mps 732 mmHg 77%
    21:00 -7°C° 0 mm 7 mps 732 mmHg 76%
    22:00 -8°C° 0 mm 7 mps 733 mmHg 76%
    23:00 -8°C° 0 mm 7 mps 733 mmHg 75%

    Day after tomorrow, 23 January, Thursday

    Time Temperature Precipitation Wind Pressure Humidity
    00:00 -8°C° 0 mm 7 mps 734 mmHg 74%
    01:00 -9°C° 0 mm 7 mps 735 mmHg 72%
    02:00 -9°C° 0 mm 7 mps 736 mmHg 71%
    03:00 -11°C° 0 mm 8 mps 736 mmHg 71%
    04:00 -11°C° 0 mm 8 mps 736 mmHg 70%
    05:00 -11°C° 0 mm 8 mps 737 mmHg 70%
    06:00 -11°C° 0 mm 7 mps 737 mmHg 68%
    07:00 -11°C° 0 mm 7 mps 737 mmHg 66%
    08:00 -11°C° 0 mm 7 mps 738 mmHg 63%
    09:00 -11°C° 0 mm 7 mps 738 mmHg 62%
    10:00 -11°C° 0 mm 7 mps 739 mmHg 61%
    11:00 -9°C° 0 mm 7 mps 739 mmHg 60%
    12:00 -9°C° 0 mm 7 mps 739 mmHg 61%
    13:00 -9°C° 0 mm 7 mps 740 mmHg 62%
    14:00 -9°C° 0 mm 7 mps 740 mmHg 63%
    15:00 -11°C° 0 mm 7 mps 741 mmHg 64%
    16:00 -10°C° 0 mm 6 mps 742 mmHg 66%
    17:00 -10°C° 0 mm 6 mps 742 mmHg 67%
    18:00 -11°C° 0 mm 6 mps 743 mmHg 68%
    19:00 -11°C° 0 mm 5 mps 743 mmHg 69%
    20:00 -11°C° 0 mm 5 mps 744 mmHg 70%
    21:00 -11°C° 0 mm 5 mps 744 mmHg 71%
    22:00 -10°C° 0 mm 4 mps 744 mmHg 72%
    23:00 -10°C° 0 mm 4 mps 744 mmHg 73%

    24 January, Friday

    Time Temperature Precipitation Wind Pressure Humidity
    00:00 -10°C° 0 mm 4 mps 743 mmHg 73%
    01:00 -9°C° 0 mm 3 mps 743 mmHg 72%
    02:00 -9°C° 0 mm 3 mps 743 mmHg 72%
    03:00 -8°C° 0 mm 3 mps 742 mmHg 76%
    04:00 -9°C° 0 mm 4 mps 741 mmHg 81%
    05:00 -9°C° 0 mm 4 mps 741 mmHg 86%
    06:00 -8°C° 0.3 mm 4 mps 740 mmHg 89%
    07:00 -7°C° 0.3 mm 4 mps 740 mmHg 92%
    08:00 -6°C° 0.3 mm 5 mps 739 mmHg 95%
    09:00 -6°C° 0.2 mm 5 mps 739 mmHg 95%
    10:00 -5°C° 0.2 mm 5 mps 738 mmHg 94%
    11:00 -4°C° 0.2 mm 5 mps 738 mmHg 94%
    12:00 -3°C° 0.1 mm 6 mps 738 mmHg 93%
    13:00 -3°C° 0.1 mm 6 mps 738 mmHg 92%
    14:00 -2°C° 0.1 mm 6 mps 738 mmHg 92%
    15:00 -2°C° 0 mm 6 mps 738 mmHg 90%
    16:00 -1°C° 0 mm 5 mps 738 mmHg 89%
    17:00 -2°C° 0 mm 5 mps 739 mmHg 88%
    18:00 -2°C° 0 mm 5 mps 739 mmHg 88%
    19:00 -2°C° 0 mm 4 mps 739 mmHg 88%
    20:00 -2°C° 0 mm 4 mps 740 mmHg 88%
    21:00 -2°C° 0.1 mm 4 mps 739 mmHg 91%
    22:00 -1°C° 0.1 mm 3 mps 739 mmHg 94%
    23:00 -1°C° 0.1 mm 2 mps 739 mmHg 97%

    25 January, Saturday

    Time Temperature Precipitation Wind Pressure Humidity
    00:00 -1°C° 0.4 mm 3 mps 739 mmHg 97%
    01:00 0°C° 0.4 mm 3 mps 738 mmHg 98%
    02:00 0°C° 0.4 mm 3 mps 738 mmHg 98%
    03:00 0°C° 0.3 mm 3 mps 738 mmHg 98%
    04:00 0°C° 0.3 mm 4 mps 737 mmHg 97%
    05:00 0°C° 0.3 mm 5 mps 737 mmHg 97%
    06:00 0°C° 0.2 mm 5 mps 737 mmHg 97%
    07:00 0°C° 0.2 mm 5 mps 736 mmHg 96%
    08:00 +1°C° 0.2 mm 6 mps 736 mmHg 96%
    09:00 +1°C° 0.1 mm 5 mps 736 mmHg 96%
    10:00 +1°C° 0.1 mm 5 mps 737 mmHg 96%
    11:00 0°C° 0.1 mm 5 mps 737 mmHg 96%
    12:00 +1°C° 0 mm 5 mps 737 mmHg 93%
    13:00 +1°C° 0 mm 5 mps 738 mmHg 91%
    14:00 +1°C° 0 mm 5 mps 738 mmHg 89%
    15:00 0°C° 0 mm 5 mps 739 mmHg 88%
    16:00 0°C° 0 mm 4 mps 739 mmHg 87%
    17:00 -1°C° 0 mm 4 mps 740 mmHg 85%
    18:00 -2°C° 0 mm 4 mps 740 mmHg 88%
    19:00 -2°C° 0 mm 4 mps 740 mmHg 90%
    20:00 -3°C° 0 mm 4 mps 741 mmHg 92%
    21:00 -2°C° 0 mm 3 mps 741 mmHg 92%
    22:00 -2°C° 0 mm 3 mps 741 mmHg 92%
    23:00 -4°C° 0 mm 3 mps 741 mmHg 92%

    26 January, Sunday

    Time Temperature Precipitation Wind Pressure Humidity
    00:00 -4°C° 0 mm 3 mps 741 mmHg 92%
    01:00 -4°C° 0 mm 3 mps 742 mmHg 93%
    02:00 -4°C° 0 mm 3 mps 742 mmHg 93%
    03:00 -4°C° 0 mm 3 mps 742 mmHg 93%
    04:00 -4°C° 0 mm 3 mps 742 mmHg 93%
    05:00 -3°C° 0 mm 2 mps 742 mmHg 93%
    06:00 -3°C° 0 mm 2 mps 742 mmHg 93%
    07:00 -4°C° 0 mm 2 mps 743 mmHg 93%
    08:00 -4°C° 0 mm 2 mps 743 mmHg 93%
    09:00 -3°C° 0 mm 2 mps 743 mmHg 90%
    10:00 -2°C° 0 mm 3 mps 743 mmHg 87%
    11:00 -2°C° 0 mm 3 mps 743 mmHg 84%
    12:00 -2°C° 0 mm 3 mps 743 mmHg 85%
    13:00 -2°C° 0 mm 3 mps 743 mmHg 87%
    14:00 -2°C° 0 mm 4 mps 743 mmHg 88%
    15:00 -1°C° 0 mm 3 mps 743 mmHg 89%
    16:00 -2°C° 0 mm 3 mps 743 mmHg 91%
    17:00 -2°C° 0 mm 3 mps 743 mmHg 92%
    18:00 -1°C° 0 mm 3 mps 742 mmHg 93%
    19:00 -1°C° 0 mm 3 mps 742 mmHg 95%
    20:00 -1°C° 0 mm 3 mps 742 mmHg 96%
    21:00 -1°C° 0 mm 4 mps 742 mmHg 96%
    22:00 -1°C° 0 mm 4 mps 742 mmHg 97%
    23:00 -1°C° 0 mm 4 mps 742 mmHg 97%
    Show more